Tracking 30696 objects as of 15-Jun-2025
HD Live streaming from Space Station
objects crossing your sky now

STARLINK-31232

Track STARLINK-31232 now!
10-day predictions
STARLINK-31232 is classified as:


NORAD ID: 58831
Int'l Code: 2024-017F
Perigee: 481.4 km
Apogee: 483.3 km
Inclination: 53.2 °
Period: 94.1 minutes
Semi major axis: 6853 km
RCS: Unknown
Launch date: January 24, 2024
Source: United States (US)
Launch site: AIR FORCE WESTERN TEST RANGE (AFWTR)
Your satellite tracking list
Your tracking list is empty




NASA's NSSDC Master Catalog

Two Line Element Set (TLE):
1 58831U 24017F   25165.53389230 -.00002906  00000-0 -86036-4 0  9997
2 58831  53.1597   9.6464 0001329  87.2849 272.8304 15.30198527 79002
Source of the keplerian elements: AFSPC